Погода в Аки-Юрте

Россия / Республика Ингушетия     43°30′27″N   44°51′42″E
темп.,
°C
ветер,
м/с
пор.,
м/с
влажн.,
%
обл.,
%
осадки,
мм/ч
давл.,
гПа
погр.,
м
15 мая, сб
сб1500:00+18зюз11800 0.0 101111
03:00+17ююз22790 0.0 101111
06:00+19юз22755 0.0 101232
09:00+24сз22585 0.0 1012491
12:00+27с32565 0.0 10131080
15:00+28сз225528 0.0 10121521
18:00+24ююз4565100 0.1 1012132
21:00+19юз2269100 1.0 101313
16 мая, вс
вс1600:00+18ююз227498 0.0 101111
03:00+17ю11765 0.0 101111
06:00+19ю117319 0.0 101026
09:00+23всв23575 0.0 1010476
12:00+26всв44534 0.0 1008779
15:00+27в334725 0.0 10061070
18:00+24всв34600 0.0 1005106
21:00+19ю11575 0.0 100611
17 мая, пн
пн1700:00+18юз225854 0.0 100513
03:00+17ю21495 0.0 100511
06:00+18ююв22515 0.0 100514
09:00+24всв22445 0.0 1005340
12:00+27всв44400 0.0 1004630
15:00+28ссв224182 0.0 1004996
18:00+26зсз3356100 0.0 100451
21:00+17з61291100 0.9 1008308
18 мая, вт
вт1800:00+16зюз249091 0.0 1008116
03:00+16зсз7138780 0.0 1009616
06:00+15з51094100 0.6 1011592
09:00+17зсз5886100 1.0 1012674
12:00+18зсз4578100 0.3 1013744
15:00+21зсз4464100 0.4 10131286
18:00+19зсз1173100 0.3 101311
21:00+18зюз2277100 0.6 101521
19 мая, ср
ср1900:00+16юз228450 0.0 101416
03:00+14зюз11875 0.0 101511
06:00+16зюз11830 0.0 101660
09:00+21всв11645 0.0 1015749
12:00+24св43550 0.0 10141216
15:00+25в44495 0.0 10131461
18:00+22в3563100 0.0 1013113
21:00+18юв33604 0.0 101342